DW8847 Weather Reports


Display with metric or nautical units.
time (UTC)temp
F
wind
direction
speed
MPH
gust
MPH
rain 1hr
in
rain 24hr
in
rain mn
in
humidity
%
barometer
mb
20260510120040 70 179 0.0 2.0 0.00 0.00 0.00 63 1012.7
20260510115540 69 174 0.0 4.0 0.00 0.00 0.00 64 1012.8
20260510115040 69 174 1.0 4.0 0.00 0.00 0.00 63 1012.8
20260510114540 70 199 0.0 2.0 0.00 0.00 0.00 65 1012.8
20260510114043 70 182 0.0 3.0 0.00 0.00 0.00 65 1012.8
20260510113539 70 190 0.0 4.0 0.00 0.00 0.00 64 1012.8
20260510113042 70 201 1.0 4.0 0.00 0.00 0.00 63 1012.8
20260510112540 70 200 1.0 4.0 0.00 0.00 0.00 63 1012.9
20260510112038 70 216 0.0 5.0 0.00 0.00 0.00 63 1012.9
20260510111539 70 154 0.0 5.0 0.00 0.00 0.00 61 1012.9
20260510111037 71 184 1.0 5.0 0.00 0.00 0.00 62 1012.9
20260510110540 70 196 0.0 3.0 0.00 0.00 0.00 63 1013.0
20260510110039 70 171 0.0 3.0 0.00 0.00 0.00 64 1013.0
20260510105536 70 173 0.0 2.0 0.00 0.00 0.00 64 1013.1
20260510105036 70 180 0.0 3.0 0.00 0.00 0.00 63 1013.2
20260510104537 70 179 0.0 2.0 0.00 0.00 0.00 63 1013.2
20260510104039 71 90 0.0 2.0 0.00 0.00 0.00 63 1013.2
20260510103537 71 131 0.0 2.0 0.00 0.00 0.00 63 1013.2
20260510103042 70 142 0.0 2.0 0.00 0.00 0.00 64 1013.2
20260510102537 70 162 0.0 2.0 0.00 0.00 0.00 60 1013.1
20260510102036 70 182 0.0 2.0 0.00 0.00 0.00 64 1013.1
20260510101534 70 63 0.0 2.0 0.00 0.00 0.00 62 1013.1
20260510101034 70 63 0.0 2.0 0.00 0.00 0.00 62 1013.1
20260510100534 70 63 0.0 2.0 0.00 0.00 0.00 62 1013.2
20260510100039 70 63 0.0 2.0 0.00 0.00 0.00 64 1013.2
20260510095534 70 62 0.0 2.0 0.00 0.00 0.00 64 1013.2
20260510095033 70 62 0.0 2.0 0.00 0.00 0.00 62 1013.3
20260510094541 70 65 1.0 2.0 0.00 0.00 0.00 61 1013.4
20260510094036 70 61 0.0 4.0 0.00 0.00 0.00 60 1013.4
20260510093534 70 61 1.0 4.0 0.00 0.00 0.00 60 1013.5
20260510093032 71 62 0.0 2.0 0.00 0.00 0.00 63 1013.5
20260510092531 70 62 0.0 2.0 0.00 0.00 0.00 59 1013.5
20260510092030 71 62 0.0 2.0 0.00 0.00 0.00 62 1013.5
20260510091531 71 62 0.0 2.0 0.00 0.00 0.00 62 1013.5
20260510091029 70 62 0.0 3.0 0.00 0.00 0.00 62 1013.5
20260510090530 70 62 0.0 3.0 0.00 0.00 0.00 62 1013.6
20260510090033 70 70 0.0 2.0 0.00 0.00 0.00 63 1013.5
20260510085526 69 75 0.0 3.0 0.00 0.00 0.00 63 1013.5
20260510085027 69 73 1.0 4.0 0.00 0.00 0.00 64 1013.4
20260510084525 68 66 0.0 4.0 0.00 0.00 0.00 63 1013.4
20260510084024 68 68 1.0 4.0 0.00 0.00 0.00 63 1013.4
20260510083524 68 62 0.0 3.0 0.00 0.00 0.00 64 1013.5
20260510083033 68 62 0.0 3.0 0.00 0.00 0.00 68 1013.6
20260510082521 67 63 0.0 3.0 0.00 0.00 0.00 64 1013.6
20260510082022 67 67 1.0 3.0 0.00 0.00 0.00 65 1013.5
20260510081521 67 52 0.0 3.0 0.00 0.00 0.00 66 1013.6
20260510081020 67 65 0.0 3.0 0.00 0.00 0.00 67 1013.5
20260510080520 67 67 1.0 3.0 0.00 0.00 0.00 66 1013.6
20260510080019 67 67 0.0 3.0 0.00 0.00 0.00 66 1013.6
20260510075522 66 65 1.0 4.0 0.00 0.00 0.00 66 1013.5
20260510075018 66 57 1.0 4.0 0.00 0.00 0.00 66 1013.5
20260510074517 66 71 1.0 4.0 0.00 0.00 0.00 66 1013.6
20260510074016 66 70 1.0 3.0 0.00 0.00 0.00 67 1013.6
20260510073518 66 69 1.0 2.0 0.00 0.00 0.00 67 1013.5
20260510073017 66 71 0.0 4.0 0.00 0.00 0.00 69 1013.5
20260510072514 65 71 1.0 4.0 0.00 0.00 0.00 68 1013.5
20260510072016 65 32 1.0 5.0 0.00 0.00 0.00 69 1013.4
20260510071512 65 70 2.0 5.0 0.00 0.00 0.00 69 1013.4
20260510071011 65 26 1.0 4.0 0.00 0.00 0.00 70 1013.3
20260510070513 65 25 2.0 4.0 0.00 0.00 0.00 70 1013.4
20260510070022 64 32 1.0 5.0 0.00 0.00 0.00 70 1013.3
20260510065510 64 34 2.0 4.0 0.00 0.00 0.00 70 1013.3
20260510065009 64 17 1.0 3.0 0.00 0.00 0.00 74 1013.3
20260510064507 63 22 1.0 3.0 0.00 0.00 0.00 74 1013.4
20260510064006 63 22 1.0 3.0 0.00 0.00 0.00 74 1013.5
20260510063506 63 22 1.0 3.0 0.00 0.00 0.00 74 1013.5
20260510063005 63 30 1.0 3.0 0.00 0.00 0.00 76 1013.5
20260510062504 62 30 1.0 3.0 0.00 0.00 0.00 77 1013.6
20260510062001 62 30 1.0 3.0 0.00 0.00 0.00 77 1013.6
20260510061600 61 42 0.0 2.0 0.00 0.00 0.00 79 1013.7
20260510061059 61 36 1.0 3.0 0.00 0.00 0.00 79 1013.7
20260510060558 60 36 1.0 3.0 0.00 0.00 0.00 79 1013.7
20260510060100 60 37 1.0 2.0 0.00 0.00 0.00 80 1013.7
20260510055555 59 37 1.0 3.0 0.00 0.00 0.00 80 1013.7
20260510055054 59 37 1.0 3.0 0.00 0.00 0.00 80 1013.7
20260510054554 59 37 2.0 3.0 0.00 0.00 0.00 80 1013.7
20260510054053 58 63 0.0 2.0 0.00 0.00 0.00 81 1013.8
20260510053551 58 63 0.0 2.0 0.00 0.00 0.00 81 1013.8
20260510053050 58 63 0.0 2.0 0.00 0.00 0.00 81 1013.9
20260510052550 58 63 0.0 2.0 0.00 0.00 0.00 81 1013.9
20260510052049 57 63 0.0 2.0 0.00 0.00 0.00 81 1013.9
20260510051555 57 65 0.0 2.0 0.00 0.00 0.00 81 1014.0
20260510051048 57 66 0.0 2.0 0.00 0.00 0.00 82 1014.0
20260510050548 57 67 0.0 2.0 0.00 0.00 0.00 82 1013.9
20260510050051 56 67 0.0 2.0 0.00 0.00 0.00 82 1013.9
20260510045547 56 68 1.0 2.0 0.00 0.00 0.00 82 1013.9
20260510045046 56 82 0.0 2.0 0.00 0.00 0.00 83 1014.0
20260510044545 55 83 0.0 2.0 0.00 0.00 0.00 83 1014.0
20260510044044 55 83 0.0 1.0 0.00 0.00 0.00 83 1014.0
20260510043543 55 83 0.0 0.0 0.00 0.00 0.00 83 1014.0
20260510043048 55 83 0.0 0.0 0.00 0.00 0.00 83 1014.0
20260510042540 55 83 0.0 2.0 0.00 0.00 0.00 83 1014.0
20260510042038 54 83 0.0 2.0 0.00 0.00 0.00 83 1014.0
20260510041554 54 83 0.0 2.0 0.00 0.00 0.00 83 1014.0
20260510041038 54 83 0.0 2.0 0.00 0.00 0.00 83 1014.0
20260510040537 54 83 0.0 2.0 0.00 0.00 0.00 83 1014.0
20260510040036 54 83 0.0 2.0 0.00 0.00 0.00 83 1014.0
20260510035535 54 83 0.0 2.0 0.00 0.00 0.00 83 1014.0
20260510035034 54 83 0.0 2.0 0.00 0.00 0.00 84 1014.0
20260510034534 54 83 0.0 2.0 0.00 0.00 0.00 84 1013.9
20260510034034 54 83 0.0 2.0 0.00 0.00 0.00 84 1014.0
20260510033534 54 83 0.0 0.0 0.00 0.00 0.00 84 1014.1
20260510033033 54 83 0.0 0.0 0.00 0.00 0.00 84 1014.2
20260510032531 54 83 0.0 2.0 0.00 0.00 0.00 84 1014.3
20260510032030 54 83 0.0 2.0 0.00 0.00 0.00 84 1014.3
20260510031530 54 83 0.0 1.0 0.00 0.00 0.00 85 1014.3
20260510031029 54 83 0.0 2.0 0.00 0.00 0.00 85 1014.4
20260510030534 53 83 0.0 2.0 0.00 0.00 0.00 85 1014.3
20260510030029 53 83 0.0 2.0 0.00 0.00 0.00 85 1014.4
20260510025528 53 83 0.0 2.0 0.00 0.00 0.00 85 1014.5
20260510025028 53 83 0.0 0.0 0.00 0.00 0.00 85 1014.5
20260510024528 53 83 0.0 0.0 0.00 0.00 0.00 85 1014.5
20260510024027 53 83 0.0 0.0 0.00 0.00 0.00 85 1014.6
20260510023526 53 83 0.0 0.0 0.00 0.00 0.00 85 1014.6
20260510023026 53 83 0.0 0.0 0.00 0.00 0.00 85 1014.6
20260510022526 54 83 0.0 0.0 0.00 0.00 0.00 85 1014.7
20260510022025 54 83 0.0 0.0 0.00 0.00 0.00 85 1014.7
20260510021524 54 83 0.0 0.0 0.00 0.00 0.00 85 1014.6
20260510021024 54 83 0.0 2.0 0.00 0.00 0.00 85 1014.6
20260510020525 54 83 0.0 2.0 0.00 0.00 0.00 85 1014.6
20260510020025 54 83 0.0 2.0 0.00 0.00 0.00 85 1014.6
20260510015523 54 83 0.0 2.0 0.00 0.00 0.00 85 1014.6
20260510015023 54 83 0.0 2.0 0.00 0.00 0.00 85 1014.6
20260510014524 54 83 0.0 2.0 0.00 0.00 0.00 85 1014.6
20260510014022 54 83 0.0 0.0 0.00 0.00 0.00 84 1014.7
20260510013521 55 83 0.0 2.0 0.00 0.00 0.00 84 1014.8
20260510013020 55 83 0.0 2.0 0.00 0.00 0.00 84 1014.8
20260510012519 55 83 0.0 2.0 0.00 0.00 0.00 84 1014.8
20260510012018 55 83 0.0 2.0 0.00 0.00 0.00 84 1014.8
20260510011531 55 83 0.0 2.0 0.00 0.00 0.00 84 1014.8
20260510011018 56 83 0.0 0.0 0.00 0.00 0.00 84 1014.8
20260510010518 56 83 0.0 0.0 0.00 0.00 0.00 84 1014.9
20260510010019 56 83 0.0 0.0 0.00 0.00 0.00 84 1014.9
20260510005518 56 83 0.0 0.0 0.00 0.00 0.00 84 1014.9
20260510005117 56 83 0.0 0.0 0.00 0.00 0.00 83 1014.9
20260510004517 56 83 0.0 2.0 0.00 0.00 0.00 83 1015.0
20260510004020 56 83 0.0 2.0 0.00 0.00 0.00 83 1015.0
20260510003517 56 83 0.0 2.0 0.00 0.00 0.00 84 1014.9
20260510003017 56 83 0.0 0.0 0.00 0.00 0.00 84 1015.0
20260510002516 56 83 0.0 0.0 0.00 0.00 0.00 83 1015.0
20260510002017 56 83 0.0 0.0 0.00 0.00 0.00 83 1015.0
20260510001516 56 83 0.0 0.0 0.00 0.00 0.00 83 1015.0
20260510001015 56 83 0.0 0.0 0.00 0.00 0.00 83 1015.1
20260510000515 56 83 0.0 0.0 0.00 0.00 0.00 83 1015.1
20260510000015 57 83 0.0 0.0 0.00 0.00 0.00 83 1015.2
20260509235514 57 83 0.0 0.0 0.00 0.00 0.00 83 1015.1
20260509235014 57 83 0.0 0.0 0.00 0.00 0.00 83 1015.1
20260509234514 57 83 0.0 0.0 0.00 0.00 0.00 83 1015.1
20260509234016 56 83 0.0 0.0 0.00 0.00 0.00 84 1015.1
20260509233515 56 83 0.0 0.0 0.00 0.00 0.00 85 1015.1
20260509233014 56 83 0.0 0.0 0.00 0.00 0.00 85 1015.1
20260509232513 56 83 0.0 0.0 0.00 0.00 0.00 85 1015.1
20260509232013 56 83 0.0 0.0 0.00 0.00 0.00 86 1015.1
20260509231515 55 83 0.0 0.0 0.00 0.00 0.00 84 1015.1
20260509231012 55 83 0.0 0.0 0.00 0.00 0.00 84 1015.2
20260509230511 55 83 0.0 1.0 0.00 0.00 0.00 84 1015.2
20260509230010 56 83 0.0 1.0 0.00 0.00 0.00 84 1015.2
20260509225510 56 83 0.0 0.0 0.00 0.00 0.00 84 1015.3
20260509225009 56 83 0.0 2.0 0.00 0.00 0.00 84 1015.3
20260509224511 56 83 0.0 2.0 0.00 0.00 0.00 84 1015.3
20260509224009 56 83 0.0 0.0 0.00 0.00 0.00 84 1015.3
20260509223509 56 83 0.0 1.0 0.00 0.00 0.00 84 1015.2
20260509223007 56 83 0.0 1.0 0.00 0.00 0.00 83 1015.3
20260509222506 57 83 0.0 0.0 0.00 0.00 0.00 82 1015.2
20260509222003 57 83 0.0 0.0 0.00 0.00 0.00 82 1015.3
20260509221508 57 83 0.0 0.0 0.00 0.00 0.00 82 1015.3
20260509221002 57 83 0.0 0.0 0.00 0.00 0.00 82 1015.2
20260509220559 57 83 0.0 0.0 0.00 0.00 0.00 82 1015.2
20260509220107 57 83 0.0 0.0 0.00 0.00 0.00 82 1015.2
20260509215558 57 83 0.0 0.0 0.00 0.00 0.00 81 1015.2
20260509215058 58 83 0.0 2.0 0.00 0.00 0.00 81 1015.2
20260509214558 58 83 0.0 1.0 0.00 0.00 0.00 81 1015.2
20260509214057 58 83 0.0 0.0 0.00 0.00 0.00 81 1015.2
20260509213557 58 83 0.0 0.0 0.00 0.00 0.00 81 1015.1
20260509213058 58 83 0.0 0.0 0.00 0.00 0.00 80 1015.2
20260509212558 59 83 0.0 0.0 0.00 0.00 0.00 81 1015.2
20260509212059 59 83 0.0 0.0 0.00 0.00 0.00 79 1015.1
20260509211556 59 83 0.0 1.0 0.00 0.00 0.00 79 1015.1
20260509211057 59 83 0.0 1.0 0.00 0.00 0.00 78 1015.0
20260509210557 59 83 0.0 0.0 0.00 0.00 0.00 76 1015.0
20260509210100 59 83 0.0 0.0 0.00 0.00 0.00 77 1015.0
20260509205556 59 83 0.0 0.0 0.00 0.00 0.00 77 1015.0
20260509205057 59 83 0.0 0.0 0.00 0.00 0.00 78 1015.0
20260509204601 60 83 0.0 0.0 0.00 0.00 0.00 79 1015.0
20260509204056 60 83 0.0 2.0 0.00 0.00 0.00 78 1015.0
20260509203555 61 83 0.0 2.0 0.00 0.00 0.00 75 1015.0
20260509203058 61 244 0.0 0.0 0.00 0.00 0.00 76 1014.9
20260509202557 61 244 0.0 0.0 0.00 0.00 0.00 76 1014.8
20260509202058 61 244 0.0 0.0 0.00 0.00 0.00 74 1014.8
20260509201555 61 244 0.0 0.0 0.00 0.00 0.00 75 1014.8
20260509201055 61 244 0.0 0.0 0.00 0.00 0.00 76 1014.8
20260509200555 61 244 0.0 0.0 0.00 0.00 0.00 74 1014.7
20260509195557 62 244 0.0 2.0 0.00 0.00 0.00 75 1014.7
20260509195056 62 244 0.0 2.0 0.00 0.00 0.00 75 1014.7
20260509194555 62 244 1.0 2.0 0.00 0.00 0.00 73 1014.8
20260509194054 62 244 0.0 0.0 0.00 0.00 0.00 72 1014.7
20260509193559 62 244 0.0 0.0 0.00 0.00 0.00 72 1014.7
20260509193106 63 244 0.0 0.0 0.00 0.00 0.00 71 1014.6
20260509192554 63 244 0.0 0.0 0.00 0.00 0.00 69 1014.6
20260509192057 63 244 0.0 0.0 0.00 0.00 0.00 71 1014.6
20260509191612 63 244 0.0 0.0 0.00 0.00 0.00 71 1014.6
20260509191053 64 244 0.0 0.0 0.00 0.00 0.00 70 1014.5
20260509190553 64 244 0.0 0.0 0.00 0.00 0.00 70 1014.5
20260509190110 64 244 0.0 0.0 0.00 0.00 0.00 68 1014.5
20260509185553 64 244 0.0 0.0 0.00 0.00 0.00 67 1014.5
20260509185053 65 244 0.0 0.0 0.00 0.00 0.00 67 1014.4
20260509184553 65 244 0.0 0.0 0.00 0.00 0.00 68 1014.5
20260509184053 65 244 0.0 0.0 0.00 0.00 0.00 67 1014.5
20260509183554 65 244 0.0 0.0 0.00 0.00 0.00 68 1014.6
20260509183053 66 244 0.0 0.0 0.00 0.00 0.00 66 1014.6
20260509182552 66 244 0.0 0.0 0.00 0.00 0.00 68 1014.4
20260509182052 66 244 0.0 0.0 0.00 0.00 0.00 66 1014.4
20260509181552 67 244 0.0 0.0 0.00 0.00 0.00 67 1014.5
20260509181052 67 244 0.0 0.0 0.00 0.00 0.00 67 1014.5
20260509180551 67 244 0.0 1.0 0.00 0.00 0.00 63 1014.4
20260509180052 67 244 0.0 2.0 0.00 0.00 0.00 64 1014.4
20260509175551 67 244 0.0 2.0 0.00 0.00 0.00 65 1014.4
20260509175051 67 244 0.0 0.0 0.00 0.00 0.00 66 1014.4
20260509174551 68 244 0.0 2.0 0.00 0.00 0.00 64 1014.3
20260509174053 68 244 0.0 2.0 0.00 0.00 0.00 63 1014.3
20260509173551 68 244 0.0 2.0 0.00 0.00 0.00 64 1014.3
20260509173058 69 244 0.0 3.0 0.00 0.00 0.00 62 1014.3
20260509172554 69 266 0.0 3.0 0.00 0.00 0.00 62 1014.4
20260509172050 70 286 0.0 2.0 0.00 0.00 0.00 61 1014.3
20260509171605 70 196 0.0 2.0 0.00 0.00 0.00 60 1014.2
20260509171049 71 192 0.0 0.0 0.00 0.00 0.00 55 1014.1
20260509170551 71 192 0.0 2.0 0.00 0.00 0.00 56 1014.0
20260509170050 71 192 0.0 2.0 0.00 0.00 0.00 55 1014.0
20260509165549 71 192 0.0 2.0 0.00 0.00 0.00 57 1014.0
20260509165049 72 192 0.0 2.0 0.00 0.00 0.00 54 1014.0
20260509164553 72 180 0.0 2.0 0.00 0.00 0.00 52 1013.9
20260509164051 72 180 1.0 4.0 0.00 0.00 0.00 52 1013.8
20260509163553 72 182 0.0 3.0 0.00 0.00 0.00 55 1013.9
20260509163056 72 202 1.0 3.0 0.00 0.00 0.00 53 1013.8
20260509162553 72 173 0.0 2.0 0.00 0.00 0.00 53 1013.7
20260509162048 72 196 0.0 4.0 0.00 0.00 0.00 52 1013.7
20260509161548 72 196 0.0 5.0 0.00 0.00 0.00 52 1013.8
20260509161047 73 182 1.0 6.0 0.00 0.00 0.00 51 1013.8
20260509160548 73 277 1.0 6.0 0.00 0.00 0.00 52 1013.8
20260509160048 73 189 1.0 5.0 0.00 0.00 0.00 54 1013.9
20260509155547 73 198 0.0 5.0 0.00 0.00 0.00 54 1013.9
20260509155046 73 167 1.0 5.0 0.00 0.00 0.00 54 1014.0
20260509154546 73 182 2.0 5.0 0.00 0.00 0.00 56 1014.0
20260509154047 73 171 1.0 4.0 0.00 0.00 0.00 55 1014.0
20260509153546 74 148 1.0 6.0 0.00 0.00 0.00 54 1014.1
20260509153047 74 159 2.0 6.0 0.00 0.00 0.00 54 1014.1
20260509152546 74 159 2.0 7.0 0.00 0.00 0.00 54 1014.1
20260509152046 74 202 2.0 10.0 0.00 0.00 0.00 55 1014.1
20260509151547 74 203 5.0 10.0 0.00 0.00 0.00 54 1014.0
20260509151046 74 198 4.0 9.0 0.00 0.00 0.00 57 1014.1
20260509150545 74 219 3.0 8.0 0.00 0.00 0.00 56 1014.0
20260509150045 75 210 1.0 5.0 0.00 0.00 0.00 57 1014.0
20260509145545 75 254 1.0 8.0 0.00 0.00 0.00 56 1014.0
20260509145044 75 202 3.0 8.0 0.00 0.00 0.00 56 1014.0
20260509144548 75 195 4.0 6.0 0.00 0.00 0.00 56 1014.0
20260509144045 75 9 0.0 5.0 0.00 0.00 0.00 57 1014.0
20260509143544 75 172 2.0 7.0 0.00 0.00 0.00 56 1014.1
20260509143043 75 161 2.0 7.0 0.00 0.00 0.00 55 1014.2
20260509142544 76 207 2.0 7.0 0.00 0.00 0.00 53 1014.1
20260509142042 77 200 2.0 6.0 0.00 0.00 0.00 56 1014.1
20260509141547 76 164 0.0 5.0 0.00 0.00 0.00 52 1014.2
20260509141041 76 219 1.0 4.0 0.00 0.00 0.00 54 1014.2
20260509140540 76 44 0.0 3.0 0.00 0.00 0.00 53 1014.2
20260509140041 76 138 0.0 7.0 0.00 0.00 0.00 58 1014.2
20260509135540 75 59 2.0 7.0 0.00 0.00 0.00 56 1014.2
20260509135040 76 142 1.0 7.0 0.00 0.00 0.00 56 1014.2
20260509134551 76 158 2.0 8.0 0.00 0.00 0.00 57 1014.3
20260509134043 77 192 2.0 8.0 0.00 0.00 0.00 53 1014.2
20260509133539 77 199 0.0 2.0 0.00 0.00 0.00 51 1014.3
20260509133041 76 201 0.0 2.0 0.00 0.00 0.00 45 1014.3
20260509132541 75 205 0.0 7.0 0.00 0.00 0.00 45 1014.4
20260509132040 76 205 2.0 10.0 0.00 0.00 0.00 45 1014.4
20260509131556 77 228 6.0 10.0 0.00 0.00 0.00 48 1014.4
20260509131037 78 157 0.0 2.0 0.00 0.00 0.00 46 1014.4
20260509130539 77 74 0.0 3.0 0.00 0.00 0.00 51 1014.5
20260509130048 76 67 1.0 4.0 0.00 0.00 0.00 47 1014.5
20260509125536 75 226 0.0 5.0 0.00 0.00 0.00 51 1014.5
20260509125034 76 198 2.0 8.0 0.00 0.00 0.00 55 1014.5
20260509124542 76 196 2.0 8.0 0.00 0.00 0.00 48 1014.6
20260509124036 76 82 1.0 5.0 0.00 0.00 0.00 48 1014.5
20260509123534 76 67 0.0 5.0 0.00 0.00 0.00 49 1014.6
20260509123037 77 54 0.0 5.0 0.00 0.00 0.00 49 1014.6
20260509122533 76 102 0.0 5.0 0.00 0.00 0.00 49 1014.6
20260509122031 75 234 1.0 8.0 0.00 0.00 0.00 49 1014.6
20260509121532 75 244 4.0 8.0 0.00 0.00 0.00 49 1014.7
20260509121031 75 246 2.0 5.0 0.00 0.00 0.00 49 1014.7
20260509120533 76 120 0.0 3.0 0.00 0.00 0.00 48 1014.9